Home   Weather   Pamplona   Past weeks

Flag for Spain Past Weather in Pamplona, Spain — Yesterday and Last 2 Weeks

Now
45 °F

Broken clouds.


Feels Like: 40 °F
Forecast: 33 / 58 °F
Wind: 9 mph from Northwest

Location: Pamplona / Noain

Current Time: Apr 30, 2017 at 9:08:27 pm

Latest Report: Apr 30, 2017 at 8:30 pm


Visibility: N/A

Pressure: 29.89 "Hg

Humidity: 81%

Dew Point: 39 °F

Location of PamplonaLocation

Past Weather in Pamplona — Graph

°F

Pamplona Temperature Yesterday

Maximum temperature yesterday: 61 °F (at 12:30 pm)
Minimum temperature yesterday: 32 °F (at 6:00 am)
Average temperature yesterday: 47 °F

High & Low Weather Summary for the Past Weeks

 TemperatureHumidityPressure
High79 °F (Apr 24, 4:00 pm)100% (Apr 17, 4:00 am)30.36 "Hg (Apr 17, 4:00 am)
Low32 °F (Apr 20, 7:30 am)17% (Apr 22, 6:00 pm)29.68 "Hg (Apr 30, 10:30 am)
Average52 °F61%30.07 "Hg
* Reported Apr 15 7:00 pm — Apr 30 7:30 pm, Pamplona, Weather by CustomWeather, © 2017

Note: Actual official high and low records may vary slightly from our data, if they occured in-between our weather recording intervals... More about our weather records

Advertising

Pamplona Weather History for the Previous 24 Hours

Scroll right to see more
 ConditionsComfort  
Time TempWeatherWind HumidityBarometerVisibility
7:30 pm
Sun, Apr 30
45 °FScattered clouds.9 mph81%29.83 "HgN/A
7:00 pm45 °FScattered clouds.16 mph87%29.83 "HgN/A
6:30 pm54 °FScattered clouds.10 mph58%29.80 "HgN/A
6:00 pm54 °FScattered clouds.12 mph63%29.77 "HgN/A
5:30 pm54 °FScattered clouds.8 mph67%29.77 "HgN/A
5:00 pm50 °FScattered clouds.2 mph71%29.77 "HgN/A
4:30 pm48 °FLight rain. Broken clouds.1 mph82%29.80 "HgN/A
4:00 pm46 °FRain. Broken clouds.13 mph93%29.77 "Hg4 mi
3:30 pm48 °FLight rain. Broken clouds.9 mph94%29.74 "Hg5 mi
3:00 pm50 °FRain. Broken clouds.17 mph94%29.71 "Hg5 mi
2:00 pm54 °FRain. Broken clouds.14 mph88%29.68 "Hg4 mi
1:30 pm54 °FLight rain. Broken clouds.10 mph88%29.71 "Hg5 mi
1:00 pm55 °FLight rain. Broken clouds.17 mph77%29.71 "Hg5 mi
12:30 pm57 °FLight rain. Broken clouds.24 mph67%29.68 "HgN/A
12:00 pm57 °FScattered clouds.24 mph67%29.68 "HgN/A
11:30 am59 °FScattered clouds.23 mph55%29.68 "HgN/A
11:00 am59 °FScattered clouds.22 mph59%29.68 "HgN/A
10:30 am57 °FScattered clouds.22 mph63%29.68 "HgN/A
10:00 am55 °FScattered clouds.17 mph67%29.71 "HgN/A
9:30 am55 °FScattered clouds.18 mph67%29.71 "HgN/A
9:00 am54 °FScattered clouds.16 mph77%29.74 "HgN/A
8:30 am54 °FScattered clouds.18 mph72%29.71 "HgN/A
8:00 am54 °FScattered clouds.17 mph72%29.71 "HgN/A
7:30 am54 °FScattered clouds.12 mph72%29.74 "HgN/A
7:00 am52 °FPassing clouds.9 mph77%29.74 "HgN/A
6:30 am52 °FPassing clouds.12 mph77%29.74 "HgN/A
6:00 am52 °FPassing clouds.9 mph77%29.74 "HgN/A
5:30 am52 °FPassing clouds.10 mph77%29.74 "HgN/A
5:00 am54 °FPassing clouds.12 mph72%29.74 "HgN/A
4:30 am54 °FPassing clouds.12 mph72%29.74 "HgN/A
4:00 am54 °FPassing clouds.15 mph72%29.74 "HgN/A
3:30 am52 °FPassing clouds.12 mph77%29.77 "HgN/A
3:00 am54 °FPassing clouds.15 mph72%29.77 "HgN/A
2:30 am52 °FPassing clouds.17 mph77%29.77 "HgN/A
2:00 am54 °FPassing clouds.14 mph72%29.80 "HgN/A
1:30 am54 °FPassing clouds.9 mph72%29.80 "HgN/A
1:00 am54 °FOvercast.9 mph72%29.80 "HgN/A
12:30 am54 °FOvercast.6 mph72%29.80 "HgN/A
12:00 am54 °FPassing clouds.10 mph67%29.83 "HgN/A
11:30 pm
Sat, Apr 29
55 °FPartly cloudy.13 mph63%29.83 "HgN/A
11:00 pm54 °FPassing clouds.12 mph67%29.83 "HgN/A
10:30 pm54 °FPassing clouds.9 mph67%29.83 "HgN/A
9:30 pm55 °FPassing clouds.7 mph59%29.83 "HgN/A
9:00 pm54 °FPartly sunny.13 mph63%29.83 "HgN/A
Weather by CustomWeather, © 2017

See weather overviewHow to use our weather pages